| time (UTC) | temp C | wind direction | speed KPH | gust KPH | rain 1hr cm | rain 24hr cm | rain mn cm | humidity % | barometer mb |
| 20260510221209 | 15 | 218 | 0.0 | 1.6 | 0.00 | 0.00 | 0.00 | 44 | 1031.2 |
| 20260510220706 | 15 | 13 | 4.8 | 4.8 | 0.00 | 0.00 | 0.00 | 44 | 1031.0 |
| 20260510220206 | 15 | 285 | 6.4 | 8.0 | 0.00 | 0.00 | 0.00 | 44 | 1031.4 |
| 20260510215703 | 15 | 241 | 1.6 | 1.6 | 0.00 | 0.00 | 0.00 | 43 | 1031.4 |
| 20260510215201 | 15 | 138 | 1.6 | 1.6 | 0.00 | 0.00 | 0.00 | 43 | 1031.3 |
| 20260510214658 | 15 | 226 | 0.0 | 1.6 | 0.00 | 0.00 | 0.00 | 44 | 1031.4 |
| 20260510214155 | 16 | 12 | 8.0 | 11.3 | 0.00 | 0.00 | 0.00 | 44 | 1031.3 |
| 20260510213652 | 15 | 207 | 1.6 | 3.2 | 0.00 | 0.00 | 0.00 | 44 | 1031.2 |
| 20260510213148 | 15 | 178 | 4.8 | 4.8 | 0.00 | 0.00 | 0.00 | 45 | 1031.5 |
| 20260510212644 | 15 | 73 | 8.0 | 11.3 | 0.00 | 0.00 | 0.00 | 44 | 1031.4 |
| 20260510212136 | 15 | 177 | 1.6 | 3.2 | 0.00 | 0.00 | 0.00 | 45 | 1031.4 |
| 20260510211632 | 15 | 92 | 11.3 | 14.5 | 0.00 | 0.00 | 0.00 | 46 | 1031.4 |
| 20260510211127 | 16 | 199 | 1.6 | 3.2 | 0.00 | 0.00 | 0.00 | 45 | 1031.8 |
| 20260510210624 | 15 | 190 | 3.2 | 4.8 | 0.00 | 0.00 | 0.00 | 46 | 1031.7 |
| 20260510210120 | 14 | 28 | 3.2 | 8.0 | 0.00 | 0.00 | 0.00 | 47 | 1031.4 |
| 20260510205618 | 15 | 150 | 4.8 | 8.0 | 0.00 | 0.00 | 0.00 | 47 | 1031.4 |
| 20260510205114 | 15 | 98 | 3.2 | 3.2 | 0.00 | 0.00 | 0.00 | 46 | 1031.7 |
| 20260510204611 | 15 | 129 | 4.8 | 8.0 | 0.00 | 0.00 | 0.00 | 46 | 1031.4 |
| 20260510204108 | 15 | 279 | 8.0 | 11.3 | 0.00 | 0.00 | 0.00 | 46 | 1031.7 |
| 20260510203604 | 15 | 147 | 8.0 | 11.3 | 0.00 | 0.00 | 0.00 | 46 | 1031.7 |
| 20260510203102 | 16 | 44 | 9.7 | 12.9 | 0.00 | 0.00 | 0.00 | 44 | 1031.5 |
| 20260510202600 | 15 | 163 | 1.6 | 3.2 | 0.00 | 0.00 | 0.00 | 48 | 1031.5 |
| 20260510202057 | 15 | 116 | 4.8 | 8.0 | 0.00 | 0.00 | 0.00 | 45 | 1031.7 |
| 20260510201554 | 15 | 261 | 4.8 | 8.0 | 0.00 | 0.00 | 0.00 | 47 | 1031.5 |
| 20260510201051 | 13 | 145 | 6.4 | 8.0 | 0.00 | 0.00 | 0.00 | 49 | 1031.7 |
| 20260510200546 | 13 | 354 | 11.3 | 12.9 | 0.00 | 0.00 | 0.00 | 49 | 1031.5 |
| 20260510200044 | 14 | 255 | 1.6 | 1.6 | 0.00 | 0.00 | 0.00 | 46 | 1032.1 |
| 20260510195543 | 15 | 134 | 6.4 | 9.7 | 0.00 | 0.00 | 0.00 | 46 | 1032.1 |
| 20260510195038 | 13 | 222 | 1.6 | 1.6 | 0.00 | 0.00 | 0.00 | 48 | 1032.3 |
| 20260510194533 | 13 | 329 | 8.0 | 9.7 | 0.00 | 0.00 | 0.00 | 48 | 1031.7 |
| 20260510194030 | 15 | 182 | 8.0 | 9.7 | 0.00 | 0.00 | 0.00 | 47 | 1031.8 |
| 20260510193525 | 13 | 247 | 4.8 | 4.8 | 0.00 | 0.00 | 0.00 | 50 | 1031.8 |
| 20260510193020 | 13 | 131 | 3.2 | 4.8 | 0.00 | 0.00 | 0.00 | 50 | 1031.8 |
| 20260510192515 | 14 | 118 | 6.4 | 9.7 | 0.00 | 0.00 | 0.00 | 49 | 1031.8 |
| 20260510192012 | 13 | 169 | 9.7 | 12.9 | 0.00 | 0.00 | 0.00 | 49 | 1031.9 |
| 20260510191508 | 13 | 45 | 8.0 | 11.3 | 0.00 | 0.00 | 0.00 | 52 | 1031.8 |
| 20260510191005 | 13 | 134 | 8.0 | 14.5 | 0.00 | 0.00 | 0.00 | 51 | 1031.9 |
| 20260510190502 | 13 | 134 | 11.3 | 12.9 | 0.00 | 0.00 | 0.00 | 51 | 1031.8 |
| 20260510185959 | 14 | 50 | 9.7 | 11.3 | 0.00 | 0.00 | 0.00 | 51 | 1031.7 |
| 20260510185456 | 13 | 104 | 6.4 | 8.0 | 0.00 | 0.00 | 0.00 | 49 | 1031.7 |
| 20260510184954 | 13 | 35 | 4.8 | 8.0 | 0.00 | 0.00 | 0.00 | 51 | 1031.8 |
| 20260510184451 | 14 | 313 | 6.4 | 9.7 | 0.00 | 0.00 | 0.00 | 52 | 1031.9 |
| 20260510183951 | 13 | 19 | 8.0 | 9.7 | 0.00 | 0.00 | 0.00 | 52 | 1031.8 |
| 20260510183447 | 12 | 341 | 4.8 | 8.0 | 0.00 | 0.00 | 0.00 | 54 | 1031.9 |
| 20260510182947 | 12 | 140 | 6.4 | 11.3 | 0.00 | 0.00 | 0.00 | 55 | 1032.1 |
| 20260510182444 | 13 | 127 | 8.0 | 11.3 | 0.00 | 0.00 | 0.00 | 51 | 1031.8 |
| 20260510181939 | 12 | 339 | 4.8 | 4.8 | 0.00 | 0.00 | 0.00 | 54 | 1031.8 |
| 20260510181438 | 12 | 118 | 3.2 | 4.8 | 0.00 | 0.00 | 0.00 | 55 | 1031.9 |
| 20260510180933 | 12 | 39 | 6.4 | 11.3 | 0.00 | 0.00 | 0.00 | 53 | 1031.8 |
| 20260510180431 | 12 | 145 | 8.0 | 9.7 | 0.00 | 0.00 | 0.00 | 53 | 1032.2 |
| 20260510175927 | 12 | 56 | 8.0 | 11.3 | 0.00 | 0.00 | 0.00 | 53 | 1032.2 |
| 20260510175423 | 12 | 344 | 9.7 | 12.9 | 0.00 | 0.00 | 0.00 | 53 | 1031.9 |
| 20260510174919 | 12 | 316 | 6.4 | 9.7 | 0.00 | 0.00 | 0.00 | 53 | 1031.9 |
| 20260510174418 | 12 | 62 | 9.7 | 12.9 | 0.00 | 0.00 | 0.00 | 52 | 1032.2 |
| 20260510173914 | 13 | 201 | 3.2 | 4.8 | 0.00 | 0.00 | 0.00 | 51 | 1031.9 |
| 20260510173409 | 13 | 88 | 3.2 | 4.8 | 0.00 | 0.00 | 0.00 | 50 | 1031.8 |
| 20260510172906 | 11 | 234 | 1.6 | 1.6 | 0.00 | 0.00 | 0.00 | 52 | 1031.9 |
| 20260510172402 | 11 | 86 | 4.8 | 8.0 | 0.00 | 0.00 | 0.00 | 52 | 1031.8 |
| 20260510171858 | 12 | 349 | 9.7 | 9.7 | 0.00 | 0.00 | 0.00 | 51 | 1032.1 |
| 20260510171356 | 11 | 252 | 4.8 | 4.8 | 0.00 | 0.00 | 0.00 | 54 | 1031.7 |
| 20260510170852 | 12 | 119 | 3.2 | 4.8 | 0.00 | 0.00 | 0.00 | 52 | 1031.9 |
| 20260510170349 | 11 | 202 | 3.2 | 3.2 | 0.00 | 0.00 | 0.00 | 52 | 1031.9 |
| 20260510165844 | 11 | 28 | 9.7 | 14.5 | 0.00 | 0.00 | 0.00 | 51 | 1032.1 |
| 20260510165341 | 11 | 305 | 14.5 | 17.7 | 0.00 | 0.00 | 0.00 | 50 | 1031.9 |
| 20260510164838 | 12 | 1 | 6.4 | 9.7 | 0.00 | 0.00 | 0.00 | 49 | 1032.1 |
| 20260510164335 | 12 | 308 | 9.7 | 11.3 | 0.00 | 0.00 | 0.00 | 48 | 1031.7 |
| 20260510163835 | 12 | 143 | 3.2 | 3.2 | 0.00 | 0.00 | 0.00 | 45 | 1032.1 |
| 20260510163332 | 12 | 106 | 4.8 | 8.0 | 0.00 | 0.00 | 0.00 | 46 | 1031.8 |
| 20260510162826 | 11 | 31 | 9.7 | 14.5 | 0.00 | 0.00 | 0.00 | 45 | 1031.7 |
| 20260510162323 | 11 | 285 | 3.2 | 3.2 | 0.00 | 0.00 | 0.00 | 46 | 1031.7 |
| 20260510161819 | 11 | 125 | 6.4 | 8.0 | 0.00 | 0.00 | 0.00 | 47 | 1031.9 |
| 20260510161315 | 11 | 203 | 1.6 | 3.2 | 0.00 | 0.00 | 0.00 | 44 | 1031.8 |
| 20260510160812 | 11 | 32 | 3.2 | 3.2 | 0.00 | 0.00 | 0.00 | 43 | 1031.8 |
| 20260510160308 | 10 | 49 | 8.0 | 11.3 | 0.00 | 0.00 | 0.00 | 45 | 1031.8 |
| 20260510155803 | 11 | 337 | 4.8 | 4.8 | 0.00 | 0.00 | 0.00 | 47 | 1032.1 |
| 20260510155259 | 11 | 38 | 9.7 | 11.3 | 0.00 | 0.00 | 0.00 | 44 | 1031.7 |
| 20260510154755 | 10 | 101 | 6.4 | 9.7 | 0.00 | 0.00 | 0.00 | 45 | 1031.8 |
| 20260510154251 | 11 | 200 | 0.0 | 0.0 | 0.00 | 0.00 | 0.00 | 46 | 1031.5 |
| 20260510153746 | 11 | 205 | 0.0 | 1.6 | 0.00 | 0.00 | 0.00 | 49 | 1031.9 |
| 20260510153242 | 10 | 182 | 1.6 | 3.2 | 0.00 | 0.00 | 0.00 | 52 | 1031.5 |
| 20260510152739 | 10 | 41 | 3.2 | 4.8 | 0.00 | 0.00 | 0.00 | 57 | 1031.5 |
| 20260510152236 | 10 | 161 | 3.2 | 4.8 | 0.00 | 0.00 | 0.00 | 59 | 1031.8 |
| 20260510151732 | 10 | 104 | 4.8 | 4.8 | 0.00 | 0.00 | 0.00 | 57 | 1031.7 |
| 20260510151231 | 9 | 120 | 3.2 | 3.2 | 0.00 | 0.00 | 0.00 | 59 | 1031.7 |
| 20260510150726 | 9 | 157 | 4.8 | 8.0 | 0.00 | 0.00 | 0.00 | 60 | 1031.8 |
| 20260510150222 | 9 | 89 | 3.2 | 4.8 | 0.00 | 0.00 | 0.00 | 62 | 1031.7 |
| 20260510145718 | 9 | 195 | 1.6 | 1.6 | 0.00 | 0.00 | 0.00 | 65 | 1031.4 |
| 20260510145215 | 8 | 118 | 1.6 | 1.6 | 0.00 | 0.00 | 0.00 | 67 | 1031.7 |
| 20260510144711 | 8 | 92 | 3.2 | 3.2 | 0.00 | 0.00 | 0.00 | 68 | 1031.5 |
| 20260510144208 | 8 | 15 | 3.2 | 3.2 | 0.00 | 0.00 | 0.00 | 71 | 1031.8 |
| 20260510143702 | 8 | 5 | 1.6 | 3.2 | 0.00 | 0.00 | 0.00 | 72 | 1031.7 |
| 20260510143159 | 7 | 62 | 1.6 | 1.6 | 0.00 | 0.00 | 0.00 | 73 | 1031.8 |
| 20260510142655 | 7 | 223 | 1.6 | 3.2 | 0.00 | 0.00 | 0.00 | 76 | 1031.7 |
| 20260510142152 | 7 | 217 | 0.0 | 0.0 | 0.00 | 0.00 | 0.00 | 75 | 1031.8 |
| 20260510141649 | 7 | 217 | 0.0 | 1.6 | 0.00 | 0.00 | 0.00 | 76 | 1031.7 |
| 20260510141148 | 6 | 221 | 0.0 | 0.0 | 0.00 | 0.00 | 0.00 | 79 | 1031.9 |
| 20260510140644 | 6 | 216 | 0.0 | 1.6 | 0.00 | 0.00 | 0.00 | 79 | 1031.8 |
| 20260510140143 | 6 | 231 | 1.6 | 1.6 | 0.00 | 0.00 | 0.00 | 81 | 1032.1 |
| 20260510135638 | 6 | 244 | 1.6 | 3.2 | 0.00 | 0.00 | 0.00 | 83 | 1031.7 |
| 20260510135135 | 5 | 276 | 1.6 | 1.6 | 0.00 | 0.00 | 0.00 | 85 | 1031.7 |
| 20260510134632 | 6 | 317 | 1.6 | 1.6 | 0.00 | 0.00 | 0.00 | 85 | 1031.9 |
| 20260510134129 | 5 | 208 | 0.0 | 1.6 | 0.00 | 0.00 | 0.00 | 87 | 1032.1 |
| 20260510133625 | 5 | 201 | 0.0 | 1.6 | 0.00 | 0.00 | 0.00 | 88 | 1031.9 |
| 20260510133121 | 5 | 306 | 0.0 | 1.6 | 0.00 | 0.00 | 0.00 | 89 | 1031.5 |
| 20260510132617 | 5 | 188 | 1.6 | 1.6 | 0.00 | 0.00 | 0.00 | 89 | 1031.8 |
| 20260510132115 | 5 | 189 | 0.0 | 0.0 | 0.00 | 0.00 | 0.00 | 92 | 1032.1 |
| 20260510131612 | 5 | 199 | 0.0 | 0.0 | 0.00 | 0.00 | 0.00 | 96 | 1032.1 |
| 20260510131109 | 4 | 193 | 0.0 | 0.0 | 0.00 | 0.00 | 0.00 | 99 | 1032.1 |
| 20260510130606 | 3 | 57 | 0.0 | 0.0 | 0.00 | 0.00 | 0.00 | 99 | 1032.3 |
| 20260510130104 | 3 | 296 | 0.0 | 0.0 | 0.00 | 0.00 | 0.00 | 99 | 1032.1 |
| 20260510125559 | 3 | 208 | 0.0 | 0.0 | 0.00 | 0.00 | 0.00 | 99 | 1031.9 |
| 20260510125056 | 2 | 194 | 1.6 | 1.6 | 0.00 | 0.00 | 0.00 | 99 | 1032.1 |
| 20260510124552 | 2 | 221 | 0.0 | 0.0 | 0.00 | 0.00 | 0.00 | 99 | 1032.3 |
| 20260510124050 | 2 | 216 | 0.0 | 0.0 | 0.00 | 0.00 | 0.00 | 99 | 1031.8 |
| 20260510123545 | 2 | 226 | 0.0 | 0.0 | 0.00 | 0.00 | 0.00 | 99 | 1032.1 |
| 20260510123041 | 2 | 205 | 1.6 | 1.6 | 0.00 | 0.00 | 0.00 | 99 | 1031.9 |
| 20260510122537 | 2 | 217 | 0.0 | 0.0 | 0.00 | 0.00 | 0.00 | 99 | 1031.8 |
| 20260510122033 | 2 | 214 | 0.0 | 0.0 | 0.00 | 0.00 | 0.00 | 99 | 1031.9 |
| 20260510121531 | 2 | 212 | 0.0 | 0.0 | 0.00 | 0.00 | 0.00 | 99 | 1031.7 |
| 20260510121028 | 2 | 220 | 0.0 | 0.0 | 0.00 | 0.00 | 0.00 | 99 | 1031.8 |
| 20260510120525 | 2 | 212 | 0.0 | 0.0 | 0.00 | 0.00 | 0.00 | 99 | 1031.5 |
| 20260510120021 | 2 | 227 | 0.0 | 0.0 | 0.00 | 0.00 | 0.00 | 99 | 1031.8 |
| 20260510115518 | 3 | 224 | 0.0 | 0.0 | 0.00 | 0.00 | 0.00 | 99 | 1031.5 |
| 20260510115014 | 3 | 214 | 0.0 | 0.0 | 0.00 | 0.00 | 0.00 | 99 | 1031.3 |
| 20260510114510 | 3 | 221 | 0.0 | 0.0 | 0.00 | 0.00 | 0.00 | 99 | 1031.3 |
| 20260510114007 | 3 | 220 | 0.0 | 0.0 | 0.00 | 0.00 | 0.00 | 99 | 1031.3 |
| 20260510113502 | 3 | 220 | 0.0 | 0.0 | 0.00 | 0.00 | 0.00 | 99 | 1031.5 |
| 20260510113000 | 3 | 215 | 0.0 | 0.0 | 0.00 | 0.00 | 0.00 | 99 | 1031.4 |
| 20260510112456 | 3 | 219 | 0.0 | 0.0 | 0.00 | 0.00 | 0.00 | 99 | 1031.3 |
| 20260510111953 | 3 | 221 | 0.0 | 0.0 | 0.00 | 0.00 | 0.00 | 99 | 1031.4 |
| 20260510111449 | 3 | 226 | 0.0 | 0.0 | 0.00 | 0.00 | 0.00 | 99 | 1031.4 |
| 20260510110945 | 3 | 226 | 0.0 | 0.0 | 0.00 | 0.00 | 0.00 | 99 | 1031.3 |
| 20260510110442 | 3 | 225 | 0.0 | 0.0 | 0.00 | 0.00 | 0.00 | 99 | 1031.4 |
| 20260510105937 | 3 | 224 | 0.0 | 0.0 | 0.00 | 0.00 | 0.00 | 99 | 1031.3 |
| 20260510105433 | 2 | 223 | 0.0 | 0.0 | 0.00 | 0.00 | 0.00 | 99 | 1031.2 |
| 20260510104928 | 2 | 224 | 0.0 | 0.0 | 0.00 | 0.00 | 0.00 | 99 | 1031.0 |
| 20260510104425 | 2 | 223 | 0.0 | 0.0 | 0.00 | 0.00 | 0.00 | 99 | 1030.9 |
| 20260510103922 | 2 | 233 | 0.0 | 0.0 | 0.00 | 0.00 | 0.00 | 99 | 1031.0 |
| 20260510103420 | 2 | 221 | 0.0 | 0.0 | 0.00 | 0.00 | 0.00 | 99 | 1031.0 |
| 20260510102914 | 2 | 221 | 0.0 | 0.0 | 0.00 | 0.00 | 0.00 | 99 | 1030.9 |
| 20260510102410 | 2 | 221 | 0.0 | 0.0 | 0.00 | 0.00 | 0.00 | 99 | 1031.2 |
| 20260510101908 | 2 | 229 | 0.0 | 0.0 | 0.00 | 0.00 | 0.00 | 99 | 1030.5 |
| 20260510101406 | 2 | 212 | 0.0 | 0.0 | 0.00 | 0.00 | 0.00 | 99 | 1030.8 |
| 20260510100903 | 2 | 230 | 0.0 | 0.0 | 0.00 | 0.00 | 0.00 | 99 | 1030.7 |
| 20260510100400 | 2 | 243 | 0.0 | 0.0 | 0.00 | 0.00 | 0.00 | 99 | 1030.7 |
| 20260510095856 | 2 | 221 | 0.0 | 0.0 | 0.00 | 0.00 | 0.00 | 99 | 1030.5 |
| 20260510095350 | 2 | 224 | 0.0 | 0.0 | 0.00 | 0.00 | 0.00 | 99 | 1030.8 |
| 20260510094850 | 2 | 226 | 0.0 | 0.0 | 0.00 | 0.00 | 0.00 | 99 | 1030.7 |
| 20260510094345 | 2 | 223 | 0.0 | 0.0 | 0.00 | 0.00 | 0.00 | 99 | 1030.4 |
| 20260510093842 | 2 | 226 | 0.0 | 0.0 | 0.00 | 0.00 | 0.00 | 99 | 1030.5 |
| 20260510093338 | 2 | 226 | 0.0 | 0.0 | 0.00 | 0.00 | 0.00 | 99 | 1030.5 |
| 20260510092834 | 2 | 223 | 0.0 | 0.0 | 0.00 | 0.00 | 0.00 | 99 | 1030.5 |
| 20260510092330 | 1 | 224 | 0.0 | 0.0 | 0.00 | 0.00 | 0.00 | 99 | 1030.4 |
| 20260510091826 | 1 | 221 | 0.0 | 0.0 | 0.00 | 0.00 | 0.00 | 99 | 1030.3 |
| 20260510091324 | 1 | 224 | 0.0 | 0.0 | 0.00 | 0.00 | 0.00 | 99 | 1030.5 |
| 20260510090819 | 1 | 219 | 0.0 | 0.0 | 0.00 | 0.00 | 0.00 | 99 | 1030.4 |
| 20260510090317 | 2 | 222 | 0.0 | 0.0 | 0.00 | 0.00 | 0.00 | 99 | 1030.3 |
| 20260510085812 | 2 | 200 | 0.0 | 0.0 | 0.00 | 0.00 | 0.00 | 99 | 1030.2 |
| 20260510085307 | 2 | 215 | 0.0 | 0.0 | 0.00 | 0.00 | 0.00 | 99 | 1029.9 |
| 20260510084803 | 2 | 212 | 0.0 | 0.0 | 0.00 | 0.00 | 0.00 | 99 | 1030.2 |
| 20260510084300 | 2 | 224 | 0.0 | 0.0 | 0.00 | 0.00 | 0.00 | 99 | 1029.8 |
| 20260510083756 | 2 | 219 | 0.0 | 0.0 | 0.00 | 0.00 | 0.00 | 99 | 1030.0 |
| 20260510083253 | 3 | 213 | 0.0 | 0.0 | 0.00 | 0.00 | 0.00 | 99 | 1029.9 |
| 20260510082749 | 3 | 197 | 0.0 | 1.6 | 0.00 | 0.00 | 0.00 | 99 | 1030.2 |
| 20260510082246 | 3 | 216 | 0.0 | 0.0 | 0.00 | 0.00 | 0.00 | 99 | 1030.0 |
| 20260510081745 | 3 | 220 | 0.0 | 0.0 | 0.00 | 0.00 | 0.00 | 99 | 1030.0 |
| 20260510081241 | 3 | 197 | 0.0 | 0.0 | 0.00 | 0.00 | 0.00 | 99 | 1030.3 |
| 20260510080737 | 3 | 218 | 0.0 | 0.0 | 0.00 | 0.00 | 0.00 | 99 | 1030.3 |
| 20260510080232 | 3 | 218 | 0.0 | 0.0 | 0.00 | 0.00 | 0.00 | 99 | 1030.3 |
| 20260510075729 | 3 | 214 | 0.0 | 0.0 | 0.00 | 0.00 | 0.00 | 99 | 1030.4 |
| 20260510075227 | 3 | 221 | 0.0 | 0.0 | 0.00 | 0.00 | 0.00 | 99 | 1030.2 |
| 20260510074724 | 3 | 221 | 0.0 | 0.0 | 0.00 | 0.00 | 0.00 | 99 | 1030.5 |
| 20260510074220 | 3 | 218 | 0.0 | 0.0 | 0.00 | 0.00 | 0.00 | 99 | 1030.4 |
| 20260510073717 | 3 | 223 | 0.0 | 0.0 | 0.00 | 0.00 | 0.00 | 99 | 1030.4 |
| 20260510073212 | 3 | 222 | 0.0 | 0.0 | 0.00 | 0.00 | 0.00 | 99 | 1030.7 |
| 20260510072709 | 3 | 223 | 0.0 | 0.0 | 0.00 | 0.00 | 0.00 | 99 | 1030.5 |
| 20260510072205 | 3 | 224 | 0.0 | 0.0 | 0.00 | 0.00 | 0.00 | 99 | 1030.9 |
| 20260510071702 | 3 | 224 | 0.0 | 0.0 | 0.00 | 0.00 | 0.00 | 99 | 1030.8 |
| 20260510071159 | 3 | 223 | 0.0 | 0.0 | 0.00 | 0.00 | 0.00 | 99 | 1030.7 |
| 20260510070656 | 3 | 214 | 0.0 | 0.0 | 0.00 | 0.00 | 0.00 | 99 | 1030.9 |
| 20260510070154 | 3 | 212 | 0.0 | 0.0 | 0.00 | 0.00 | 0.00 | 99 | 1030.8 |
| 20260510065649 | 3 | 217 | 0.0 | 0.0 | 0.00 | 0.00 | 0.00 | 99 | 1030.8 |
| 20260510065145 | 3 | 224 | 0.0 | 0.0 | 0.00 | 0.00 | 0.00 | 98 | 1030.7 |
| 20260510064642 | 3 | 256 | 0.0 | 0.0 | 0.00 | 0.00 | 0.00 | 98 | 1030.8 |
| 20260510064139 | 3 | 233 | 1.6 | 1.6 | 0.00 | 0.00 | 0.00 | 98 | 1030.7 |
| 20260510063636 | 3 | 231 | 1.6 | 1.6 | 0.00 | 0.00 | 0.00 | 98 | 1030.9 |
| 20260510063133 | 3 | 224 | 0.0 | 0.0 | 0.00 | 0.00 | 0.00 | 98 | 1030.9 |
| 20260510062629 | 3 | 221 | 0.0 | 0.0 | 0.00 | 0.00 | 0.00 | 98 | 1030.7 |
| 20260510062124 | 3 | 237 | 1.6 | 3.2 | 0.00 | 0.00 | 0.00 | 97 | 1030.9 |
| 20260510061620 | 3 | 217 | 0.0 | 0.0 | 0.00 | 0.00 | 0.00 | 97 | 1030.5 |
| 20260510061118 | 3 | 214 | 0.0 | 1.6 | 0.00 | 0.00 | 0.00 | 97 | 1031.0 |
| 20260510060614 | 3 | 227 | 0.0 | 0.0 | 0.00 | 0.00 | 0.00 | 96 | 1031.2 |
| 20260510060110 | 3 | 227 | 0.0 | 0.0 | 0.00 | 0.00 | 0.00 | 96 | 1031.3 |
| 20260510055606 | 3 | 213 | 0.0 | 0.0 | 0.00 | 0.00 | 0.00 | 95 | 1031.2 |
| 20260510055105 | 3 | 220 | 0.0 | 0.0 | 0.00 | 0.00 | 0.00 | 94 | 1030.9 |
| 20260510054600 | 4 | 223 | 0.0 | 0.0 | 0.00 | 0.00 | 0.00 | 94 | 1031.0 |
| 20260510054055 | 4 | 248 | 1.6 | 1.6 | 0.00 | 0.00 | 0.00 | 93 | 1030.9 |
| 20260510053555 | 4 | 229 | 0.0 | 1.6 | 0.00 | 0.00 | 0.00 | 93 | 1030.8 |
| 20260510053052 | 4 | 264 | 1.6 | 1.6 | 0.00 | 0.00 | 0.00 | 92 | 1030.8 |
| 20260510052548 | 4 | 245 | 1.6 | 3.2 | 0.00 | 0.00 | 0.00 | 91 | 1030.9 |
| 20260510052044 | 4 | 296 | 3.2 | 3.2 | 0.00 | 0.00 | 0.00 | 91 | 1030.9 |
| 20260510051540 | 4 | 249 | 1.6 | 1.6 | 0.00 | 0.00 | 0.00 | 90 | 1031.0 |
| 20260510051037 | 4 | 248 | 1.6 | 1.6 | 0.00 | 0.00 | 0.00 | 90 | 1030.9 |
| 20260510050534 | 4 | 235 | 0.0 | 0.0 | 0.00 | 0.00 | 0.00 | 90 | 1030.8 |
| 20260510050031 | 4 | 224 | 0.0 | 0.0 | 0.00 | 0.00 | 0.00 | 90 | 1031.0 |
| 20260510045528 | 4 | 249 | 0.0 | 0.0 | 0.00 | 0.00 | 0.00 | 90 | 1030.8 |
| 20260510045024 | 4 | 260 | 0.0 | 1.6 | 0.00 | 0.00 | 0.00 | 90 | 1030.8 |
| 20260510044521 | 4 | 345 | 4.8 | 4.8 | 0.00 | 0.00 | 0.00 | 90 | 1031.3 |
| 20260510044019 | 4 | 308 | 1.6 | 3.2 | 0.00 | 0.00 | 0.00 | 90 | 1031.0 |
| 20260510043514 | 4 | 72 | 6.4 | 8.0 | 0.00 | 0.00 | 0.00 | 89 | 1031.2 |
| 20260510043009 | 4 | 304 | 6.4 | 9.7 | 0.00 | 0.00 | 0.00 | 89 | 1031.3 |
| 20260510042503 | 4 | 61 | 6.4 | 9.7 | 0.00 | 0.00 | 0.00 | 89 | 1031.2 |
| 20260510041958 | 5 | 354 | 4.8 | 9.7 | 0.00 | 0.00 | 0.00 | 89 | 1031.4 |
| 20260510041455 | 5 | 354 | 4.8 | 9.7 | 0.00 | 0.00 | 0.00 | 89 | 1031.3 |
| 20260510040954 | 5 | 269 | 0.0 | 1.6 | 0.00 | 0.00 | 0.00 | 89 | 1031.2 |
| 20260510040450 | 5 | 67 | 3.2 | 4.8 | 0.00 | 0.00 | 0.00 | 89 | 1031.0 |
| 20260510035946 | 5 | 237 | 0.0 | 1.6 | 0.00 | 0.00 | 0.00 | 89 | 1030.9 |
| 20260510035443 | 5 | 343 | 6.4 | 9.7 | 0.00 | 0.00 | 0.00 | 89 | 1030.9 |
| 20260510034942 | 5 | 335 | 3.2 | 4.8 | 0.00 | 0.00 | 0.00 | 88 | 1031.0 |
| 20260510034441 | 5 | 8 | 8.0 | 14.5 | 0.00 | 0.00 | 0.00 | 88 | 1030.9 |
| 20260510033937 | 6 | 149 | 1.6 | 3.2 | 0.00 | 0.00 | 0.00 | 87 | 1030.3 |
| 20260510033433 | 6 | 233 | 3.2 | 4.8 | 0.00 | 0.00 | 0.00 | 87 | 1030.3 |
| 20260510032930 | 6 | 236 | 0.0 | 1.6 | 0.00 | 0.00 | 0.00 | 86 | 1030.3 |
| 20260510032427 | 6 | 70 | 4.8 | 4.8 | 0.00 | 0.00 | 0.00 | 86 | 1030.3 |
| 20260510031922 | 6 | 236 | 3.2 | 4.8 | 0.00 | 0.00 | 0.00 | 85 | 1030.4 |
| 20260510031418 | 6 | 86 | 1.6 | 4.8 | 0.00 | 0.00 | 0.00 | 85 | 1030.0 |
| 20260510030913 | 6 | 43 | 4.8 | 4.8 | 0.00 | 0.00 | 0.00 | 85 | 1030.2 |
| 20260510030409 | 6 | 352 | 4.8 | 4.8 | 0.00 | 0.00 | 0.00 | 85 | 1030.2 |
| 20260510025907 | 6 | 38 | 4.8 | 8.0 | 0.00 | 0.00 | 0.00 | 86 | 1030.3 |
| 20260510025405 | 6 | 283 | 4.8 | 4.8 | 0.00 | 0.00 | 0.00 | 86 | 1029.8 |
| 20260510024902 | 6 | 74 | 0.0 | 1.6 | 0.00 | 0.00 | 0.00 | 86 | 1029.8 |
| 20260510024358 | 6 | 297 | 4.8 | 8.0 | 0.00 | 0.00 | 0.00 | 86 | 1029.4 |
| 20260510023854 | 6 | 247 | 4.8 | 4.8 | 0.00 | 0.00 | 0.00 | 86 | 1029.1 |
| 20260510023350 | 6 | 36 | 3.2 | 4.8 | 0.00 | 0.00 | 0.00 | 86 | 1028.8 |
| 20260510022848 | 6 | 327 | 6.4 | 9.7 | 0.00 | 0.00 | 0.00 | 86 | 1028.8 |
| 20260510022347 | 6 | 284 | 6.4 | 8.0 | 0.00 | 0.00 | 0.00 | 85 | 1028.6 |
| 20260510021846 | 6 | 285 | 4.8 | 8.0 | 0.00 | 0.00 | 0.00 | 85 | 1028.5 |
| 20260510021344 | 6 | 191 | 4.8 | 4.8 | 0.00 | 0.00 | 0.00 | 84 | 1028.6 |
| 20260510020841 | 6 | 243 | 3.2 | 3.2 | 0.00 | 0.00 | 0.00 | 84 | 1027.9 |
| 20260510020340 | 6 | 353 | 6.4 | 12.9 | 0.00 | 0.00 | 0.00 | 82 | 1027.8 |
| 20260510015836 | 6 | 250 | 8.0 | 14.5 | 0.00 | 0.00 | 0.00 | 81 | 1027.6 |
| 20260510015332 | 7 | 121 | 4.8 | 9.7 | 0.00 | 0.00 | 0.00 | 78 | 1027.1 |
| 20260510014828 | 7 | 51 | 8.0 | 11.3 | 0.00 | 0.00 | 0.00 | 76 | 1026.8 |
| 20260510014325 | 8 | 79 | 11.3 | 20.9 | 0.00 | 0.00 | 0.00 | 73 | 1026.5 |
| 20260510013821 | 9 | 94 | 6.4 | 12.9 | 0.00 | 0.00 | 0.00 | 70 | 1026.1 |
| 20260510013317 | 10 | 63 | 8.0 | 9.7 | 0.00 | 0.00 | 0.00 | 67 | 1025.7 |
| 20260510012813 | 11 | 17 | 17.7 | 22.5 | 0.00 | 0.00 | 0.00 | 63 | 1025.5 |
| 20260510012312 | 13 | 21 | 12.9 | 20.9 | 0.00 | 0.00 | 0.00 | 53 | 1025.2 |
| 20260510011807 | 16 | 19 | 19.3 | 29.0 | 0.00 | 0.00 | 0.00 | 36 | 1024.7 |
| 20260510011303 | 16 | 21 | 3.2 | 3.2 | 0.00 | 0.00 | 0.00 | 36 | 1024.4 |
| 20260510010759 | 16 | 113 | 4.8 | 4.8 | 0.00 | 0.00 | 0.00 | 35 | 1024.5 |
| 20260510010256 | 16 | 268 | 3.2 | 3.2 | 0.00 | 0.00 | 0.00 | 35 | 1024.4 |
| 20260510005753 | 16 | 220 | 0.0 | 0.0 | 0.00 | 0.00 | 0.00 | 35 | 1024.1 |
| 20260510005249 | 15 | 216 | 0.0 | 1.6 | 0.00 | 0.00 | 0.00 | 35 | 1024.0 |
| 20260510004747 | 15 | 94 | 6.4 | 8.0 | 0.00 | 0.00 | 0.00 | 34 | 1024.0 |
| 20260510004245 | 16 | 256 | 0.0 | 0.0 | 0.00 | 0.00 | 0.00 | 35 | 1024.0 |
| 20260510003742 | 16 | 221 | 0.0 | 1.6 | 0.00 | 0.00 | 0.00 | 35 | 1023.6 |
| 20260510003238 | 16 | 50 | 3.2 | 3.2 | 0.00 | 0.00 | 0.00 | 34 | 1023.3 |
| 20260510002737 | 16 | 210 | 0.0 | 1.6 | 0.00 | 0.00 | 0.00 | 34 | 1023.7 |
| 20260510002235 | 16 | 278 | 3.2 | 4.8 | 0.00 | 0.00 | 0.00 | 33 | 1023.1 |
| 20260510001731 | 16 | 128 | 1.6 | 1.6 | 0.00 | 0.00 | 0.00 | 33 | 1023.6 |
| 20260510001230 | 16 | 234 | 1.6 | 1.6 | 0.00 | 0.00 | 0.00 | 34 | 1023.3 |
| 20260510000725 | 16 | 194 | 1.6 | 3.2 | 0.00 | 0.00 | 0.00 | 34 | 1023.3 |
| 20260510000223 | 16 | 226 | 0.0 | 0.0 | 0.00 | 0.00 | 0.00 | 33 | 1023.2 |
| 20260509235720 | 16 | 186 | 1.6 | 3.2 | 0.00 | 0.00 | 0.00 | 34 | 1023.3 |
| 20260509235216 | 17 | 314 | 4.8 | 4.8 | 0.00 | 0.00 | 0.00 | 33 | 1023.1 |
| 20260509234712 | 16 | 218 | 0.0 | 0.0 | 0.00 | 0.00 | 0.00 | 37 | 1023.0 |
| 20260509234209 | 16 | 221 | 0.0 | 1.6 | 0.00 | 0.00 | 0.00 | 35 | 1023.0 |
| 20260509233708 | 16 | 295 | 0.0 | 1.6 | 0.00 | 0.00 | 0.00 | 34 | 1023.0 |
| 20260509233205 | 16 | 249 | 0.0 | 0.0 | 0.00 | 0.00 | 0.00 | 34 | 1023.1 |
| 20260509232701 | 16 | 220 | 0.0 | 0.0 | 0.00 | 0.00 | 0.00 | 35 | 1022.7 |
| 20260509232157 | 17 | 120 | 9.7 | 12.9 | 0.00 | 0.00 | 0.00 | 33 | 1023.0 |
| 20260509231654 | 16 | 226 | 3.2 | 3.2 | 0.00 | 0.00 | 0.00 | 34 | 1022.6 |
| 20260509231152 | 17 | 229 | 3.2 | 3.2 | 0.00 | 0.00 | 0.00 | 34 | 1022.7 |
| 20260509230649 | 16 | 340 | 3.2 | 4.8 | 0.00 | 0.00 | 0.00 | 34 | 1022.8 |
| 20260509230146 | 16 | 344 | 1.6 | 1.6 | 0.00 | 0.00 | 0.00 | 33 | 1023.1 |
| 20260509225641 | 16 | 249 | 0.0 | 0.0 | 0.00 | 0.00 | 0.00 | 34 | 1023.0 |
| 20260509225137 | 16 | 243 | 1.6 | 1.6 | 0.00 | 0.00 | 0.00 | 34 | 1022.8 |
| 20260509224632 | 16 | 154 | 8.0 | 9.7 | 0.00 | 0.00 | 0.00 | 34 | 1022.7 |
| 20260509224129 | 16 | 138 | 0.0 | 0.0 | 0.00 | 0.00 | 0.00 | 35 | 1022.7 |
| 20260509223626 | 16 | 217 | 0.0 | 1.6 | 0.00 | 0.00 | 0.00 | 35 | 1022.8 |
| 20260509223118 | 15 | 232 | 0.0 | 0.0 | 0.00 | 0.00 | 0.00 | 35 | 1022.7 |
| 20260509222614 | 15 | 192 | 1.6 | 3.2 | 0.00 | 0.00 | 0.00 | 34 | 1022.7 |
| 20260509222110 | 15 | 223 | 1.6 | 1.6 | 0.00 | 0.00 | 0.00 | 36 | 1023.1 |
| 20260509221605 | 15 | 161 | 4.8 | 4.8 | 0.00 | 0.00 | 0.00 | 34 | 1022.6 |